Regional Weather Roundup
Issued by NWS Northern Indiana

Home | Current Version | Previous Version | Text Only | Print | Product List | Glossary On
Versions: 1 2 3 4 5 6 7 8 9 10 11 12 13 14 15 16 17 18 19 20 21 22 23 24 25 26 27 28 29 30 31 32 33 34 35 36 37 38 39 40 41 42 43 44 45 46 47 48 49 50
000
ASUS43 KIWX 011410
RWRIWX

KIWX WEATHER ROUNDUP
NATIONAL WEATHER SERVICE NORTHERN INDIANA
1000 AM EDT WED APR 01 2015

NOTE: "FAIR" INDICATES FEW OR NO CLOUDS BELOW 12,000 FEET WITH NO
SIGNIFICANT WEATHER AND/OR OBSTRUCTIONS TO VISIBILITY.

* THESE STATIONS ARE NOT UNDER NWS QUALITY CONTROL. THEY ALSO MAY NOT
  REPORT WEATHER SUCH AS PRECIPITATION OR FOG.

INZ001>027-011500-
NORTHERN INDIANA

CITY           SKY/WX    TMP DP  RH WIND       PRES   REMARKS
GARY*          SUNNY     52  32  46 CALM      30.08R
VALPARAISO     SUNNY     46  35  65 S8        30.09R
MICHIGAN CITY* SUNNY     46  32  57 SW3       30.09R
LAPORTE*       SUNNY     47  37  66 SW5       30.09S
KNOX*          SUNNY     46  21  36 SW9       30.08S
SOUTH BEND     SUNNY     47  34  60 SW7       30.10R
ELKHART*       SUNNY     45  32  61 W5        30.10R
GOSHEN         SUNNY     45  36  70 W8        30.10R
MONTICELLO*    SUNNY     49  38  66 SW8       30.09S
LOGANSPORT*    SUNNY     46  37  71 S7        30.11R
ROCHESTER*     SUNNY     50  39  66 SW6       30.11R
WARSAW*        SUNNY     46  34  61 SW7       30.10R
ANGOLA*        SUNNY     48  36  61 W8        30.09R
FORT WAYNE     SUNNY     44  37  76 SW10      30.12R
HUNTINGTON*    SUNNY     46  34  62 SW9       30.11R
PERU/GRISSOM   SUNNY     49  38  65 SW10      30.10R
MARION*        SUNNY     45  37  72 S8        30.12R

$$
INZ028>050-011500-
CENTRAL INDIANA

CITY           SKY/WX    TMP DP  RH WIND       PRES   REMARKS
LAFAYETTE      SUNNY     50  37  61 SW8       30.10R
KOKOMO*          N/A     48  37  66 SW10      30.11R
MUNCIE*        SUNNY     48  36  63 SW10      30.11R
INDIANAPOLIS   MOSUNNY   48  37  65 S5        30.10R

$$
MIZ043>046-050>051-056>058-064>065-071>073-077>080-011500-
SOUTHWEST LOWER MICHIGAN

CITY           SKY/WX    TMP DP  RH WIND       PRES   REMARKS
BATTLE CREEK   SUNNY     46  34  62 SW10      30.08R
BENTON HARBOR  SUNNY     47  37  68 S6        30.08R
COLDWATER*     SUNNY     43  34  70 W10       30.09R
HILLSDALE*     SUNNY     44  37  74 W9        30.08R
HOLLAND        SUNNY     45  37  73 S3        30.08R
GRAND RAPIDS   SUNNY     41  30  65 CALM      30.08R
KALAMAZOO      SUNNY     45  33  63 SW6       30.09R
STURGIS*       SUNNY     43  36  75 W6        30.09R
THREE RIVERS*  FAIR      45  35  68 W5        30.10R

$$
OHZ001>008-015>018-024>025-011500-
NORTHWEST OHIO

CITY           SKY/WX    TMP DP  RH WIND       PRES   REMARKS
WAUSEON*       FAIR      41  37  87 W6        30.10R FOG
DEFIANCE       SUNNY     42  35  76 SW6       30.11R
FINDLAY        SUNNY     42  34  73 SW9       30.10R
TOLEDO EXPRESS SUNNY     40  34  79 SW5       30.10R
TOLEDO METCALF SUNNY     39  33  79 SW10      30.12R
LIMA           SUNNY     43  34  70 SW12      30.10R

$$
AND FOR LAKE MICHIGAN COASTAL AND OPEN LAKE BUOY OBSERVATIONS

STATION/POSITION TEMP    WIND        PRES    VSBY  WAVE
                 AIR SEA DIR/SP/G                  HT/PER
                 (F)     (DEG/KT/KT) (MB)    (MI)  (FT/S)
CALUMET HARBOR    45      70/  4/  5 1017.1S
MICHIGAN CITY     45     180/  1/  2   N/A
BURNS HARBOR      47     190/  5/  5 1019.3R
SAINT JOSEPH      45     180/  9/ 12 1019.3R

$$
&&


USA.gov is the U.S. government's official web portal to all federal, state and local government web resources and services.